N8TWM-13 Weather Reports


time (UTC)temp
F
wind
direction
speed
knots
gust
knots
rain 1hr
in
rain 24hr
in
rain mn
in
humidity
%
barometer
mb
20260506185042 54 252 3.5 5.2 0.00 0.39 0.39 58 1012.5
20260506184539 54 256 0.9 1.7 0.00 0.39 0.39 58 1012.6
20260506184036 53 261 2.6 4.3 0.00 0.39 0.39 57 1012.7
20260506183532 54 272 2.6 2.6 0.00 0.39 0.39 55 1012.8
20260506183029 55 315 3.5 5.2 0.00 0.39 0.39 56 1012.6
20260506182526 56 3 4.3 6.1 0.00 0.39 0.39 56 1012.2
20260506182023 56 323 2.6 2.6 0.00 0.39 0.39 56 1012.2
20260506181521 55 217 0.9 1.7 0.00 0.39 0.39 56 1012.3
20260506181017 55 285 2.6 2.6 0.00 0.39 0.39 56 1012.3
20260506180514 55 259 2.6 2.6 0.00 0.39 0.39 57 1012.5
20260506180011 54 277 1.7 1.7 0.00 0.39 0.39 56 1012.2
20260506175507 55 282 2.6 2.6 0.00 0.39 0.39 56 1012.4
20260506175004 56 290 3.5 4.3 0.00 0.39 0.39 56 1012.4
20260506174503 55 322 2.6 2.6 0.00 0.39 0.39 57 1012.3
20260506173958 55 266 4.3 6.1 0.00 0.39 0.39 56 1012.4
20260506173456 55 287 1.7 1.7 0.00 0.39 0.39 59 1012.5
20260506172952 55 12 5.2 7.0 0.00 0.39 0.39 58 1012.1
20260506172450 56 3 5.2 7.0 0.00 0.39 0.39 58 1012.0
20260506171946 56 257 0.0 0.0 0.00 0.39 0.39 60 1012.2
20260506171444 55 63 2.6 2.6 0.00 0.39 0.39 59 1012.2
20260506170941 55 293 2.6 2.6 0.00 0.39 0.39 59 1012.1
20260506170437 55 250 2.6 2.6 0.00 0.39 0.39 60 1011.9
20260506165930 55 289 1.7 1.7 0.00 0.39 0.39 59 1012.2
20260506165429 54 326 2.6 2.6 0.00 0.39 0.39 60 1012.2
20260506164924 55 65 3.5 4.3 0.00 0.39 0.39 63 1012.3
20260506164421 54 344 2.6 5.2 0.00 0.39 0.39 62 1012.3
20260506163914 54 266 2.6 4.3 0.00 0.39 0.39 61 1012.5
20260506163408 55 294 2.6 2.6 0.00 0.39 0.39 64 1012.5
20260506162903 53 30 4.3 7.0 0.00 0.39 0.39 63 1012.7
20260506162401 54 272 2.6 4.3 0.00 0.39 0.39 62 1012.5
20260506161858 55 290 2.6 2.6 0.00 0.39 0.39 61 1012.3
20260506161356 54 279 0.9 1.7 0.00 0.39 0.39 56 1012.2
20260506160853 55 332 4.3 5.2 0.00 0.39 0.39 63 1012.3
20260506160350 54 262 1.7 2.6 0.00 0.39 0.39 66 1012.0
20260506155848 53 297 2.6 4.3 0.00 0.39 0.39 63 1012.1
20260506155345 52 262 1.7 1.7 0.00 0.39 0.39 63 1012.0
20260506153502 52 260 1.7 1.7 0.00 0.39 0.39 68 1011.6
20260506153000 52 254 0.9 0.9 0.00 0.39 0.39 71 1011.7
20260506152456 52 260 1.7 1.7 0.00 0.39 0.39 70 1011.9
20260506151955 51 298 1.7 2.6 0.00 0.39 0.39 72 1011.9
20260506151452 51 235 3.5 5.2 0.00 0.39 0.39 70 1011.7
20260506150949 50 299 2.6 2.6 0.00 0.39 0.39 73 1011.9
20260506150445 50 302 2.6 4.3 0.00 0.39 0.39 71 1011.9
20260506145942 50 259 0.9 1.7 0.00 0.39 0.39 72 1011.7
20260506145438 51 284 1.7 2.6 0.00 0.39 0.39 73 1011.5
20260506144936 51 273 0.9 0.9 0.00 0.39 0.39 73 1011.4
20260506144432 50 265 1.7 2.6 0.00 0.39 0.39 73 1011.3
20260506143931 51 272 2.6 2.6 0.00 0.39 0.39 73 1011.2
20260506143428 50 302 2.6 2.6 0.00 0.39 0.39 73 1011.2
20260506142926 49 335 2.6 4.3 0.00 0.39 0.39 74 1010.9
20260506142424 50 325 7.8 8.7 0.00 0.39 0.39 74 1011.2
20260506141921 49 268 1.7 1.7 0.00 0.39 0.39 76 1011.2
20260506141419 49 258 1.7 1.7 0.00 0.39 0.39 76 1010.8
20260506140918 48 284 1.7 1.7 0.00 0.39 0.39 77 1011.0
20260506140414 48 264 0.9 1.7 0.00 0.39 0.39 78 1011.2
20260506135911 47 277 2.6 2.6 0.00 0.39 0.39 77 1011.0
20260506135408 47 259 1.7 2.6 0.00 0.39 0.39 80 1011.0
20260506134904 46 269 1.7 1.7 0.00 0.39 0.39 82 1011.2
20260506134400 46 273 0.9 1.7 0.00 0.39 0.39 83 1010.8
20260506133857 45 262 0.9 0.9 0.00 0.39 0.39 84 1010.9
20260506133354 45 279 2.6 2.6 0.00 0.39 0.39 86 1010.8
20260506132850 45 257 0.9 0.9 0.00 0.39 0.39 88 1011.0
20260506132348 44 263 2.6 4.3 0.00 0.39 0.39 89 1010.9
20260506131846 44 254 0.0 0.0 0.00 0.39 0.39 91 1010.8
20260506131342 44 256 0.9 0.9 0.00 0.39 0.39 91 1010.9
20260506130840 44 252 0.9 0.9 0.00 0.39 0.39 92 1010.9
20260506130336 44 268 0.9 1.7 0.00 0.39 0.39 93 1010.5
20260506125834 44 259 0.9 0.9 0.00 0.39 0.39 93 1010.7
20260506125332 44 260 0.9 0.9 0.00 0.39 0.39 94 1010.3
20260506124830 44 258 0.0 0.9 0.00 0.39 0.39 94 1010.2
20260506124326 43 266 1.7 1.7 0.00 0.39 0.39 94 1010.2
20260506123824 43 278 1.7 2.6 0.00 0.39 0.39 95 1010.4
20260506123322 43 248 0.0 0.9 0.00 0.39 0.39 95 1010.1
20260506122819 43 298 1.7 2.6 0.00 0.39 0.39 95 1010.0
20260506122316 43 270 0.9 0.9 0.00 0.39 0.39 96 1009.9
20260506121814 43 258 0.9 1.7 0.00 0.39 0.39 96 1009.8
20260506121311 43 273 0.9 1.7 0.00 0.39 0.39 96 1009.7
20260506120808 43 260 0.0 0.9 0.00 0.39 0.39 96 1009.7
20260506120306 43 304 1.7 1.7 0.00 0.39 0.39 96 1009.7
20260506115803 43 253 1.7 1.7 0.00 0.39 0.39 97 1009.5
20260506115306 42 261 0.9 0.9 0.00 0.39 0.39 97 1009.4
20260506114759 42 258 0.9 0.9 0.00 0.39 0.39 97 1009.4
20260506114257 42 282 1.7 1.7 0.00 0.39 0.39 97 1009.5
20260506113755 42 259 0.0 0.0 0.00 0.39 0.39 97 1009.3
20260506113252 42 257 0.0 0.0 0.00 0.39 0.39 97 1009.4
20260506112748 42 257 0.9 0.9 0.00 0.39 0.39 97 1009.6
20260506112246 42 256 0.0 0.0 0.00 0.39 0.39 97 1009.6
20260506111743 42 258 0.9 0.9 0.00 0.39 0.39 97 1009.7
20260506111241 43 256 0.0 0.0 0.00 0.39 0.39 97 1009.9
20260506110738 43 259 0.9 0.9 0.00 0.39 0.39 97 1009.4
20260506110236 43 259 0.9 0.9 0.00 0.39 0.39 97 1009.1
20260506105732 43 262 0.0 0.9 0.00 0.39 0.39 97 1008.4
20260506105229 43 258 0.0 0.9 0.00 0.39 0.39 97 1008.7
20260506104727 43 260 0.0 0.0 0.00 0.39 0.39 97 1008.8
20260506104224 43 266 0.0 0.0 0.00 0.39 0.39 97 1009.0
20260506103721 43 251 0.0 0.0 0.00 0.39 0.39 97 1009.1
20260506103218 43 273 0.9 0.9 0.00 0.39 0.39 97 1009.1
20260506102716 43 283 2.6 5.2 0.00 0.39 0.39 97 1008.6
20260506102214 43 353 2.6 2.6 0.00 0.39 0.39 97 1008.6
20260506101710 43 288 1.7 1.7 0.00 0.39 0.39 97 1008.7
20260506101207 43 269 0.0 0.9 0.00 0.39 0.39 97 1008.7
20260506100705 43 267 2.6 5.2 0.00 0.39 0.39 97 1008.1
20260506100203 44 266 1.7 1.7 0.00 0.39 0.39 97 1007.9
20260506095701 44 263 0.0 0.0 0.05 0.39 0.39 97 1008.0
20260506095158 44 260 0.0 0.0 0.05 0.39 0.39 97 1007.6
20260506094655 44 17 2.6 2.6 0.00 0.38 0.38 97 1007.6
20260506094153 44 354 4.3 5.2 0.00 0.38 0.38 97 1007.6
20260506093651 44 288 2.6 2.6 0.00 0.38 0.38 97 1007.4
20260506093148 44 57 2.6 2.6 0.00 0.38 0.38 97 1007.3
20260506092646 44 303 3.5 4.3 0.00 0.38 0.38 97 1007.8
20260506092143 44 6 2.6 5.2 0.00 0.38 0.38 97 1007.7
20260506091641 44 349 2.6 4.3 0.00 0.38 0.38 97 1008.1
20260506091138 44 318 2.6 2.6 0.07 0.38 0.38 97 1008.1
20260506090636 44 5 2.6 4.3 0.07 0.38 0.38 97 1008.5
20260506090132 44 270 1.7 1.7 0.00 0.37 0.37 97 1008.8
20260506085629 44 335 0.9 2.6 0.05 0.37 0.37 97 1008.6
20260506085125 44 312 1.7 1.7 0.05 0.37 0.37 97 1008.6
20260506084622 44 261 0.9 0.9 0.07 0.36 0.36 97 1008.6
20260506084119 44 286 1.7 1.7 0.07 0.36 0.36 97 1008.6
20260506083616 44 267 0.9 0.9 0.00 0.35 0.35 97 1008.5
20260506083113 44 323 0.9 0.9 0.00 0.35 0.35 97 1008.6
20260506082610 44 3 2.6 4.3 0.05 0.35 0.35 97 1008.1
20260506082105 44 276 1.7 2.6 0.05 0.35 0.35 97 1008.3
20260506081604 44 259 0.0 0.0 0.00 0.34 0.34 97 1008.3
20260506081101 44 272 0.0 0.9 0.00 0.34 0.34 97 1008.0
20260506080559 44 295 0.9 1.7 0.00 0.34 0.34 97 1008.1
20260506073039 44 39 3.5 6.1 0.07 0.31 0.31 97 1008.5
20260506072536 44 285 0.9 1.7 0.12 0.31 0.31 97 1008.6
20260506072034 44 7 2.6 2.6 0.12 0.30 0.30 97 1008.3
20260506071531 44 27 2.6 4.3 0.12 0.30 0.30 97 1008.0
20260506071028 44 64 3.5 5.2 0.05 0.28 0.28 97 1007.9
20260506070526 44 288 0.9 0.9 0.12 0.28 0.28 97 1008.1
20260506062503 44 64 5.2 7.0 0.17 0.21 0.21 97 1008.1
20260506061959 45 84 3.5 6.1 0.19 0.20 0.20 97 1007.8
20260506061455 45 273 0.9 1.7 0.19 0.18 0.18 97 1007.9
20260506060953 46 295 4.3 5.2 0.17 0.17 0.17 97 1008.0
20260506060451 46 266 0.0 0.9 0.19 0.16 0.16 97 1007.8
20260506050920 47 290 0.0 0.0 0.12 0.08 0.08 97 1008.3
20260506050418 47 310 0.0 0.0 0.07 0.07 0.07 97 1008.3
20260506044908 47 282 0.0 0.0 0.12 0.05 0.05 97 1008.1
20260506044406 47 316 0.0 0.0 0.05 0.04 0.04 97 1008.5
20260506043903 47 354 0.0 0.0 0.12 0.04 0.04 97 1008.1
20260506043400 47 214 0.0 0.0 0.07 0.03 0.03 97 1008.3
20260506042858 48 296 0.9 2.6 0.00 0.02 0.02 97 1008.3
20260506042357 48 27 0.0 0.0 0.05 0.02 0.02 97 1008.0
20260506041855 48 22 0.0 0.0 0.05 0.02 0.02 97 1008.0
20260506041352 47 1 0.0 0.0 0.07 0.01 0.01 97 1008.1
20260506040849 48 297 0.0 0.0 0.07 0.01 0.01 97 1008.3
20260506040347 48 273 0.0 0.0 0.12 0.01 0.01 97 1008.3
20260506035843 48 298 0.0 0.0 0.05 1.65 1.65 97 1008.6
20260506035340 48 335 0.0 0.0 0.07 1.64 1.64 97 1008.5
20260506034837 48 302 0.0 0.0 0.12 1.64 1.64 97 1008.5
20260506034334 48 276 0.0 0.0 0.12 1.63 1.63 97 1008.7
20260506033831 48 272 0.0 0.0 0.14 1.62 1.62 97 1008.8
20260506033328 48 278 0.0 0.0 0.19 1.62 1.62 97 1008.7
20260506032825 48 290 0.0 0.0 0.19 1.61 1.61 97 1008.8
20260506032322 48 271 0.0 0.0 0.19 1.59 1.59 97 1009.0
20260506031819 48 278 0.0 0.0 0.12 1.58 1.58 97 1009.1
20260506031316 48 112 0.9 1.7 0.12 1.57 1.57 97 1009.2
20260506030814 48 359 0.0 0.9 0.12 1.56 1.56 97 1009.2
20260506030312 48 280 0.0 0.0 0.07 1.55 1.55 97 1009.1
20260506025808 48 270 0.0 0.0 0.05 1.54 1.54 97 1009.4
20260506025306 48 309 0.0 0.0 0.12 1.54 1.54 97 1009.3
20260506024802 48 257 0.0 0.0 0.12 1.53 1.53 97 1009.2
20260506024258 48 261 0.0 0.0 0.12 1.52 1.52 97 1009.5
20260506023754 48 318 2.6 5.2 0.12 1.51 1.51 96 1009.4
20260506023252 49 332 5.2 6.1 0.12 1.50 1.50 96 1009.2
20260506022748 49 9 0.9 2.6 0.07 1.49 1.49 97 1009.1
20260506022246 49 284 0.9 2.6 0.12 1.48 1.48 96 1009.3
20260506021744 50 345 0.0 0.0 0.24 1.48 1.48 97 1009.2
20260506021241 50 237 0.0 0.0 0.31 1.46 1.46 97 1009.2
20260506020737 50 253 0.0 0.0 0.24 1.43 1.43 97 1009.2
20260506020235 50 290 0.0 0.9 0.24 1.42 1.42 96 1008.9
20260506015733 50 5 0.0 0.9 0.19 1.40 1.40 96 1008.9
20260506015230 50 285 0.0 0.0 0.19 1.38 1.38 96 1008.9
20260506014727 50 297 0.0 0.0 0.19 1.37 1.37 96 1008.4
20260506014223 50 257 0.0 0.0 0.12 1.36 1.36 96 1008.7
20260506013721 50 251 0.0 0.0 0.19 1.35 1.35 96 1008.8
20260506013218 50 248 0.0 0.0 0.19 1.33 1.33 96 1008.7
20260506012714 50 283 0.0 0.0 0.17 1.32 1.32 96 1008.6
20260506012211 50 246 0.9 2.6 0.24 1.31 1.31 96 1008.4
20260506011708 50 254 0.0 0.0 0.19 1.29 1.29 96 1008.5
20260506011204 50 252 0.0 0.0 0.19 1.27 1.27 96 1008.5
20260506010703 50 305 1.7 4.3 0.24 1.26 1.26 96 1008.1
20260506010200 50 280 0.0 0.9 0.24 1.24 1.24 96 1008.3
20260506005657 50 258 0.0 0.0 0.35 1.22 1.22 96 1008.6
20260506005153 50 266 0.0 0.0 0.54 1.20 1.20 96 1008.5
20260506004649 51 308 0.9 1.7 0.61 1.16 1.16 96 1008.4
20260506004147 52 265 0.0 0.0 0.61 1.12 1.12 96 1008.3
20260506003643 52 261 0.0 0.0 0.54 1.06 1.06 96 1007.8
20260506003139 53 291 0.0 0.0 0.42 1.01 1.01 95 1007.6
20260506002635 54 255 0.0 0.0 0.40 0.97 0.97 96 1007.7
20260506002132 54 282 0.0 0.0 0.50 0.94 0.94 96 1007.7
20260506001627 55 254 0.0 0.0 0.42 0.90 0.90 96 1007.4
20260506001125 55 263 0.0 0.0 0.40 0.86 0.86 96 1007.6
20260506000622 55 255 0.0 0.0 0.35 0.83 0.83 95 1007.4
20260506000120 55 247 0.0 0.0 0.24 0.80 0.80 95 1007.5
20260505235618 54 244 0.0 0.0 0.12 0.77 0.77 95 1007.5
20260505235114 54 260 0.0 0.0 0.19 0.76 0.76 95 1007.5
20260505234612 54 258 0.0 0.0 0.19 0.75 0.75 95 1007.6
20260505234108 55 256 0.0 0.0 0.24 0.73 0.73 95 1007.7
20260505233606 55 256 0.0 0.0 0.31 0.72 0.72 95 1007.7
20260505233103 56 307 0.0 0.0 0.24 0.69 0.69 95 1008.0
20260505232601 57 303 0.0 0.0 0.35 0.68 0.68 95 1008.0
20260505232058 57 288 0.0 0.0 0.42 0.66 0.66 95 1008.1
20260505231554 57 253 0.0 0.0 0.26 0.62 0.62 95 1008.3
20260505231053 58 244 0.0 0.0 0.07 0.59 0.59 95 1007.9
20260505230551 58 255 0.0 0.0 0.05 0.58 0.58 95 1007.7
20260505230047 58 255 0.0 0.0 0.05 0.58 0.58 94 1007.8
20260505225544 58 260 0.0 0.0 0.07 0.57 0.57 94 1007.8
20260505225040 58 254 0.0 0.0 0.12 0.57 0.57 94 1007.5
20260505224537 58 257 0.0 0.0 0.12 0.57 0.57 94 1007.8
20260505224034 58 253 0.0 0.0 0.12 0.56 0.56 94 1008.0
20260505223531 58 254 0.0 0.0 0.19 0.55 0.55 94 1008.1
20260505223027 58 252 0.0 0.0 0.24 0.54 0.54 94 1008.5
20260505222524 58 254 0.0 0.0 0.24 0.52 0.52 94 1008.3
20260505222019 58 252 0.0 0.0 0.24 0.50 0.50 93 1008.0
20260505221517 58 253 0.0 0.0 0.24 0.48 0.48 93 1007.9
20260505221014 58 253 0.0 0.0 0.24 0.46 0.46 93 1008.1
20260505220511 58 254 0.0 0.0 0.42 0.44 0.44 93 1008.1
20260505220009 58 257 0.0 0.0 1.21 0.42 0.42 93 1008.4
20260505215507 58 241 0.0 0.0 1.39 0.38 0.38 92 1008.3
20260505215004 59 252 0.0 0.0 0.73 0.25 0.25 92 1008.1
20260505214502 59 250 0.0 0.0 0.12 0.15 0.15 92 1007.9
20260505213958 59 249 0.0 0.0 0.00 0.13 0.13 92 1007.7
20260505213456 59 249 0.0 0.0 0.00 0.13 0.13 91 1007.4
20260505212952 60 249 0.0 0.0 0.00 0.13 0.13 91 1007.3
20260505212449 60 249 0.0 0.0 0.00 0.13 0.13 91 1007.7
20260505211945 60 249 0.0 0.0 0.00 0.13 0.13 91 1007.4
20260505211443 59 249 0.0 0.0 0.00 0.13 0.13 91 1007.5
20260505210939 59 249 0.0 0.0 0.00 0.13 0.13 92 1007.6
20260505210437 59 238 0.0 0.0 0.00 0.13 0.13 92 1007.8
20260505205933 59 256 0.0 0.0 0.00 0.13 0.13 92 1007.7
20260505205432 59 252 0.0 0.0 0.00 0.13 0.13 92 1007.7
20260505204928 59 248 0.0 0.0 0.00 0.13 0.13 92 1007.8
20260505204426 59 254 0.0 0.0 0.00 0.13 0.13 92 1008.0
20260505203923 59 256 0.0 0.0 0.00 0.13 0.13 92 1008.0
20260505203420 59 256 0.0 0.0 0.00 0.13 0.13 92 1007.8
20260505202916 59 251 0.0 0.0 0.00 0.13 0.13 92 1008.0
20260505202412 58 271 0.0 0.0 0.00 0.13 0.13 92 1007.9
20260505201909 58 255 0.0 0.0 0.05 0.13 0.13 92 1008.0
20260505201406 58 255 0.0 0.0 0.19 0.13 0.13 92 1008.1
20260505200904 58 252 0.0 0.0 0.14 0.12 0.12 91 1008.3
20260505200401 58 248 0.0 0.0 0.00 0.10 0.10 91 1008.3
20260505195856 59 261 0.0 0.0 0.05 0.10 0.10 91 1008.5
20260505195354 59 256 0.0 0.0 0.05 0.10 0.10 91 1008.3
20260505194851 59 257 0.0 0.0 0.00 0.09 0.09 90 1008.3
20260505194348 59 245 0.0 0.0 0.12 0.09 0.09 90 1008.3
20260505193843 59 254 0.0 0.0 0.31 0.09 0.09 89 1008.7
20260505193341 60 259 0.0 0.0 0.31 0.07 0.07 87 1008.4
20260505192838 61 278 0.0 0.0 0.19 0.05 0.05 85 1008.4
20260505192337 62 294 0.0 0.0 0.00 0.02 0.02 83 1008.6
20260505191834 62 257 0.0 0.0 0.00 0.02 0.02 83 1008.3
20260505191333 62 265 0.0 0.0 0.00 0.02 0.02 82 1008.4
20260505190829 62 260 0.0 0.0 0.00 0.02 0.02 82 1008.1
20260505190324 62 268 0.0 0.0 0.00 0.02 0.02 82 1008.1
20260505185820 63 262 1.7 1.7 0.00 0.02 0.02 81 1008.1
20260505185317 64 255 0.0 0.0 0.00 0.02 0.02 81 1008.4